User: anonymous
Location: Raven Hill Discovery Center
(45.1336°N, 85.0553°W)
Time: 22:14:48
(UTC-04:00)
Language:

Cosmos 1470 - Orbit

View from above orbital plane
View from above orbital plane
View from above satellite
View from above satellite

Ground track
Ground track

The orbit data is extracted from the following two-line orbital elements,

1 14147U 83061A   14106.47099476  .00003879  00000-0  26101-3 0  9601
2 14147 082.5052 091.9932 0011266 301.9145 058.0986 15.06430724430200
Epoch (UTC): 16 April 2014 11:18:13
Eccentricity: 0.0011266
inclination: 82.5052°
perigee height: 539 km
apogee height: 555 km
right ascension of ascending node: 91.9932°
argument of perigee: 301.9145°
revolutions per day: 15.06430724
mean anomaly at epoch: 58.0986°
orbit number at epoch: 43020

The dashed part of the orbit path shows where the satellite is in the earth's shadow,  

DLR